Regional Weather Roundup
Issued by NWS

Home | Current Version | Previous Version | Graphics & Text | Print | Product List | Glossary Off
Versions: 1 2 3 4 5 6 7 8 9 10 11 12 13 14 15 16 17 18 19 20 21 22 23 24 25 26 27 28 29 30 31 32 33 34 35 36 37 38 39 40 41 42 43 44 45 46 47 48 49 50

000
ASUS43 KLSX 231310
RWRMO

WEATHER SUMMARY FOR MISSOURI
NATIONAL WEATHER SERVICE SPRINGFIELD MO
700 AM CST MON JAN 23 2017

NOTE: "FAIR" INDICATES FEW OR NO CLOUDS BELOW 12,000 FEET WITH NO
       SIGNIFICANT WEATHER AND/OR OBSTRUCTIONS TO VISIBILITY.
       CURRENT SKY AND/OR WEATHER CONDITIONS ARE NOT AVAILABLE FOR
       CHILLICOTHE AND FARMINGTON.

MOZ001>031-035>038-043-044-053-054-231400-
...NORTHERN AND WESTERN MISSOURI...

CITY           SKY/WX    TMP DP  RH WIND       PRES   REMARKS
KANSAS CTY INT FOG       31  29  92 NW6       29.89S VSB 1/2 WCI  25
KANSAS C DTWN  CLOUDY    32  31  96 NW7       29.91R FOG     WCI  26
LEE`S SUMMIT   CLOUDY    31  30  96 NW8       29.89R FOG     WCI  23
ST JOSEPH      CLOUDY    31  31 100 N12       29.91R FOG     WCI  22
CHILLICOTHE      N/A     33  30  88 NW6       29.90R WCI  28
KIRKSVILLE     CLOUDY    36  33  89 NW8       29.85R WCI  30

$$
MOZ066>068-077>081-088>096-101>105-231400-
...SOUTHWEST MISSOURI...

CITY           SKY/WX    TMP DP  RH WIND       PRES   REMARKS
SPRINGFIELD    CLOUDY    37  35  92 NW7       29.86R
JOPLIN         CLOUDY    37  35  92 CALM      29.92R
BRANSON        CLOUDY    37  36  93 NW13      29.87S WCI  29

$$
MOZ032>034-039>042-045>050-055>058-069>072-231400-
...CENTRAL MISSOURI...

CITY           SKY/WX    TMP DP  RH WIND       PRES   REMARKS
COLUMBIA       CLOUDY    38  36  92 NW9       29.85R
JEFFERSON CITY MOCLDY    38  35  89 NW5       29.86R
ROLLA          CLOUDY    38  36  92 NW13      29.82R WCI  30
SEDALIA        CLOUDY    36  35  96 N10       29.88S FOG     WCI  28
WHITEMAN AFB   FOG       33  33 100 N6        29.87R VSB 1/2 WCI  28
WARRENSBURG    FOG       32  32 100 W6        29.89R VSB 1/2 WCI  26
OSAGE BEACH    CLOUDY    38  36  92 N5        29.86S

$$
MOZ051-052-059>065-231400-
...EAST CENTRAL MISSOURI...

CITY           SKY/WX    TMP DP  RH WIND       PRES   REMARKS
ST LOUIS INTL  MOCLDY    41  36  82 NW9       29.82R
SPIRIT OF STL  CLOUDY    41  37  86 NW9       29.82R
ST CHARLES     CLOUDY    41  37  86 NW10      29.82R

$$
MOZ072>076-082>087-097>100-106>115-231400-
...SOUTH CENTRAL AND SOUTHEAST MISSOURI...

CITY           SKY/WX    TMP DP  RH WIND       PRES   REMARKS
CAPE GIRARDEAU CLOUDY    41  34  76 N17G24    29.75R
FARMINGTON     CLOUDY    39  35  86 NW13      29.80R
POPLAR BLUFF   PTCLDY    41  35  79 N12       29.77R
WEST PLAINS    CLOUDY    40  35  83 N10       29.82R

$$




USA.gov is the U.S. government's official web portal to all federal, state and local government web resources and services.